Location: Eaton Estates
(41.3089°N, 82.0057°W)
Time: 12:31:39
(UTC+00:00)

Cosmos 2123 Rocket - Pass Details

Date: 20 October 2021
Orbit: 961 x 992 km, 82.9° (Epoch: 29 November)

Event Time Altitude Azimuth Distance (km) Brightness Sun altitude
Rises 00:30:32 0° 349° (NNW) 3,716 7.2 -21.4°
Reaches altitude 10° 00:33:06 10° 346° (NNW) 2,762 6.6 -21.8°
Maximum altitude 00:39:20 63° 267° (W) 1,096 4.4 -23.0°
Drops below altitude 10° 00:45:30 10° 188° (S) 2,731 6.3 -24.2°
Sets 00:48:01 0° 185° (S) 3,670 7.0 -24.6°
